SHU313 EFHK-EETN

Flight info

Callsign SHU313
Flight time 0h 21m
Altitude 16000
Route RENKU
Aircraft A320/M-SDE3FGHIRWY/LB1

Departure

Time 2026-05-06 21:36
Airport Helsinki Vantaa Airport (EFHK)

Arrival

Time 2026-05-06 21:58
Airport Lennart Meri Tallinn Airport (EETN)
Time Latitude Longitude Altitude Speed Heading
2026-05-06 21:20 60.31854 24.95999 163 ft 0 kts
2026-05-06 21:26 60.31837 24.95998 163 ft 3 kts
2026-05-06 21:27 60.31817 24.95996 163 ft 3 kts
2026-05-06 21:27 60.31797 24.95991 163 ft 3 kts 12°
2026-05-06 21:27 60.31777 24.95981 163 ft 3 kts 20°
2026-05-06 21:27 60.31759 24.95965 163 ft 3 kts 30°
2026-05-06 21:28 60.31743 24.95944 163 ft 2 kts 41°
2026-05-06 21:28 60.31737 24.95933 163 ft 1 kts 42°
2026-05-06 21:30 60.31750 24.95956 163 ft 6 kts 41°
2026-05-06 21:30 60.31788 24.96030 163 ft 7 kts 44°
2026-05-06 21:31 60.31826 24.96110 164 ft 10 kts 46°
2026-05-06 21:31 60.31883 24.96112 163 ft 11 kts 317°
2026-05-06 21:31 60.31951 24.95987 162 ft 15 kts 317°
2026-05-06 21:31 60.32033 24.95834 162 ft 17 kts 317°
2026-05-06 21:32 60.32116 24.95677 161 ft 17 kts 317°
2026-05-06 21:32 60.32274 24.95387 163 ft 15 kts 319°
2026-05-06 21:32 60.32362 24.95259 164 ft 16 kts 341°
2026-05-06 21:33 60.32462 24.95193 166 ft 15 kts 342°
2026-05-06 21:33 60.32566 24.95125 168 ft 16 kts 342°
2026-05-06 21:33 60.32672 24.95055 170 ft 16 kts 342°
2026-05-06 21:33 60.32776 24.94987 175 ft 15 kts 342°
2026-05-06 21:34 60.32870 24.94926 179 ft 13 kts 342°
2026-05-06 21:34 60.32940 24.94831 196 ft 11 kts 320°
2026-05-06 21:34 60.32992 24.94737 193 ft 10 kts 317°
2026-05-06 21:34 60.33056 24.94619 205 ft 14 kts 317°
2026-05-06 21:35 60.33119 24.94490 204 ft 11 kts 301°
2026-05-06 21:35 60.33099 24.94349 203 ft 11 kts 224°
2026-05-06 21:35 60.33036 24.94211 196 ft 23 kts 228°
2026-05-06 21:35 60.32707 24.93486 182 ft 115 kts 227°
2026-05-06 21:36 60.32003 24.91958 331 ft 166 kts 226°
2026-05-06 21:36 60.31237 24.90326 1353 ft 163 kts 228°
2026-05-06 21:36 60.30459 24.88495 1937 ft 181 kts 239°
2026-05-06 21:36 60.29933 24.86094 2262 ft 200 kts 259°
2026-05-06 21:37 60.29855 24.83182 2569 ft 217 kts 281°
2026-05-06 21:37 60.30208 24.80088 3010 ft 236 kts 282°
2026-05-06 21:37 60.30166 24.76739 3761 ft 244 kts 257°
2026-05-06 21:37 60.29568 24.73526 4693 ft 246 kts 245°
2026-05-06 21:38 60.28888 24.70365 5635 ft 247 kts 246°
2026-05-06 21:38 60.28224 24.67172 6595 ft 248 kts 246°
2026-05-06 21:38 60.27563 24.63959 7497 ft 249 kts 247°
2026-05-06 21:38 60.26902 24.60727 8420 ft 250 kts 247°
2026-05-06 21:39 60.26237 24.57472 9328 ft 252 kts 248°
2026-05-06 21:39 60.25568 24.54191 10211 ft 254 kts 248°
2026-05-06 21:39 60.24778 24.51006 10999 ft 257 kts 236°
2026-05-06 21:39 60.23537 24.48394 11768 ft 262 kts 218°
2026-05-06 21:40 60.21916 24.46658 12482 ft 272 kts 202°
2026-05-06 21:40 60.20053 24.45348 12741 ft 295 kts 201°
2026-05-06 21:40 60.18027 24.43972 12959 ft 319 kts 201°
2026-05-06 21:40 60.15849 24.42531 13201 ft 339 kts 198°
2026-05-06 21:41 60.13473 24.41864 13780 ft 352 kts 181°
2026-05-06 21:41 60.11037 24.42663 14409 ft 361 kts 165°
2026-05-06 21:41 60.08774 24.44960 15079 ft 370 kts 147°
2026-05-06 21:41 60.06903 24.48546 15711 ft 378 kts 135°
2026-05-06 21:42 60.05162 24.52468 15971 ft 381 kts 135°
2026-05-06 21:42 60.03383 24.56487 16037 ft 393 kts 135°
2026-05-06 21:42 60.01560 24.60605 16018 ft 390 kts 135°
2026-05-06 21:42 59.99789 24.64615 15956 ft 381 kts 135°
2026-05-06 21:43 59.98044 24.68559 14880 ft 380 kts 134°
2026-05-06 21:43 59.96291 24.72498 14036 ft 373 kts 134°
2026-05-06 21:43 59.94606 24.76270 13549 ft 356 kts 134°
2026-05-06 21:43 59.92970 24.79921 13042 ft 351 kts 134°
2026-05-06 21:44 59.91347 24.83525 12697 ft 345 kts 134°
2026-05-06 21:44 59.89573 24.86551 12555 ft 329 kts 150°
2026-05-06 21:44 59.87550 24.88420 12422 ft 314 kts 166°
2026-05-06 21:44 59.85477 24.89164 12276 ft 292 kts 179°
2026-05-06 21:45 59.83548 24.89033 12141 ft 271 kts 186°
2026-05-06 21:45 59.81705 24.88763 11807 ft 261 kts 190°
2026-05-06 21:45 59.79999 24.87784 11608 ft 254 kts 206°
2026-05-06 21:45 59.78509 24.85945 11478 ft 252 kts 219°
2026-05-06 21:46 59.77107 24.83824 11218 ft 253 kts 218°
2026-05-06 21:46 59.75706 24.81724 10903 ft 252 kts 218°
2026-05-06 21:46 59.74303 24.79624 10564 ft 253 kts 218°
2026-05-06 21:46 59.72890 24.77508 10217 ft 254 kts 218°
2026-05-06 21:47 59.71480 24.75390 9878 ft 255 kts 218°
2026-05-06 21:47 59.70073 24.73279 9510 ft 254 kts 218°
2026-05-06 21:47 59.68665 24.71171 9177 ft 253 kts 217°
2026-05-06 21:47 59.67265 24.69078 8839 ft 251 kts 217°
2026-05-06 21:48 59.65873 24.66998 8513 ft 250 kts 217°
2026-05-06 21:48 59.64484 24.64927 8185 ft 250 kts 216°
2026-05-06 21:48 59.63094 24.62855 7851 ft 250 kts 216°
2026-05-06 21:48 59.61707 24.60785 7531 ft 250 kts 216°
2026-05-06 21:49 59.60321 24.58720 7200 ft 250 kts 216°
2026-05-06 21:49 59.58930 24.56652 6866 ft 250 kts 216°
2026-05-06 21:49 59.57537 24.54586 6542 ft 250 kts 216°
2026-05-06 21:49 59.56166 24.52551 6196 ft 250 kts 216°
2026-05-06 21:50 59.54778 24.50493 5861 ft 249 kts 216°
2026-05-06 21:50 59.53395 24.48446 5530 ft 248 kts 216°
2026-05-06 21:50 59.52018 24.46412 5202 ft 246 kts 215°
2026-05-06 21:50 59.50654 24.44456 4872 ft 235 kts 209°
2026-05-06 21:51 59.49701 24.43546 4665 ft 225 kts 197°
2026-05-06 21:51 59.48214 24.42942 4356 ft 213 kts 180°
2026-05-06 21:51 59.46771 24.42945 4073 ft 201 kts 178°
2026-05-06 21:51 59.44999 24.42950 3713 ft 182 kts 178°
2026-05-06 21:52 59.43789 24.42954 3470 ft 164 kts 175°
2026-05-06 21:52 59.42757 24.43464 3355 ft 147 kts 150°
2026-05-06 21:52 59.42197 24.44208 3331 ft 142 kts 135°
2026-05-06 21:52 59.41611 24.45719 3281 ft 138 kts 114°
2026-05-06 21:53 59.41360 24.47515 3227 ft 136 kts 93°
2026-05-06 21:53 59.41354 24.49374 3153 ft 136 kts 89°
2026-05-06 21:53 59.41355 24.51196 3110 ft 136 kts 89°
2026-05-06 21:53 59.41356 24.53054 2990 ft 136 kts 89°
2026-05-06 21:54 59.41356 24.54904 2831 ft 135 kts 89°
2026-05-06 21:54 59.41356 24.56746 2651 ft 135 kts 89°
2026-05-06 21:54 59.41356 24.58578 2479 ft 134 kts 89°
2026-05-06 21:54 59.41355 24.60411 2293 ft 134 kts 89°
2026-05-06 21:55 59.41354 24.62237 2102 ft 134 kts 88°
2026-05-06 21:55 59.41353 24.64058 1921 ft 133 kts 88°
2026-05-06 21:55 59.41352 24.65880 1735 ft 134 kts 88°
2026-05-06 21:55 59.41350 24.67697 1555 ft 132 kts 89°
2026-05-06 21:56 59.41348 24.69494 1369 ft 132 kts 89°
2026-05-06 21:56 59.41346 24.71287 1184 ft 131 kts 89°
2026-05-06 21:56 59.41344 24.73093 982 ft 133 kts 89°
2026-05-06 21:56 59.41341 24.74913 796 ft 133 kts 89°
2026-05-06 21:57 59.41336 24.76744 597 ft 134 kts 89°
2026-05-06 21:57 59.41333 24.78581 402 ft 134 kts 89°
2026-05-06 21:57 59.41333 24.80415 209 ft 134 kts 90°
2026-05-06 21:57 59.41331 24.82165 141 ft 115 kts 90°
2026-05-06 21:58 59.41328 24.83208 141 ft 35 kts 90°
2026-05-06 21:58 59.41328 24.83573 141 ft 27 kts 90°
2026-05-06 21:58 59.41323 24.83946 140 ft 28 kts 91°
2026-05-06 21:58 59.41324 24.84343 139 ft 29 kts 89°
2026-05-06 21:59 59.41322 24.84753 140 ft 31 kts 92°
2026-05-06 21:59 59.41377 24.84999 141 ft 19 kts 10°
2026-05-06 21:59 59.41486 24.84947 141 ft 17 kts 292°
2026-05-06 21:59 59.41495 24.84730 141 ft 17 kts 269°
2026-05-06 22:00 59.41498 24.84476 140 ft 20 kts 272°
2026-05-06 22:00 59.41497 24.84190 140 ft 20 kts 267°
2026-05-06 22:00 59.41499 24.83936 140 ft 19 kts 270°
2026-05-06 22:00 59.41498 24.83689 140 ft 18 kts 269°
2026-05-06 22:01 59.41499 24.83436 140 ft 19 kts 271°
2026-05-06 22:01 59.41500 24.83172 140 ft 20 kts 270°
2026-05-06 22:01 59.41501 24.82904 140 ft 20 kts 270°
2026-05-06 22:01 59.41501 24.82625 139 ft 19 kts 269°
2026-05-06 22:02 59.41502 24.82375 139 ft 18 kts 270°
2026-05-06 22:02 59.41503 24.82151 139 ft 17 kts 270°
2026-05-06 22:02 59.41502 24.81900 139 ft 20 kts 270°
2026-05-06 22:02 59.41503 24.81649 139 ft 18 kts 273°
2026-05-06 22:03 59.41504 24.81402 139 ft 16 kts 269°
2026-05-06 22:03 59.41505 24.81216 139 ft 0 kts 270°
2026-05-06 22:04 59.41505 24.81152 139 ft 12 kts 269°
2026-05-06 22:04 59.41505 24.80953 139 ft 17 kts 270°
2026-05-06 22:04 59.41506 24.80724 138 ft 17 kts 270°
2026-05-06 22:04 59.41514 24.80514 138 ft 16 kts 281°
2026-05-06 22:05 59.41529 24.80329 138 ft 14 kts 273°
2026-05-06 22:05 59.41537 24.80203 138 ft 4 kts 325°
2026-05-06 22:05 59.41556 24.80206 138 ft 3 kts 360°
2026-05-06 22:05 59.41570 24.80206 138 ft 4 kts
2026-05-06 22:06 59.41594 24.80207 138 ft 0 kts